Tracking 19219 objects as of 18-Jul-2018
HD Live streaming from Space Station
objects crossing your sky now

CZ-2C DEB

Track CZ-2C DEB now!
10-day predictions


NORAD ID: 39204
Int'l Code: 2013-035C
Perigee: 643.2 km
Apogee: 772.7 km
Inclination: 98.4 °
Period: 98.8 minutes
Semi major axis: 7078 km
RCS: Unknown
Launch date: July 15, 2013
Source: People's Republic of China (PRC)
Launch site: Jiuquan Satellite Launch Center, China (JSC)

Note: This is SATELLITE DEBRIS
aabbcc
Your satellite tracking list
Your tracking list is empty




NASA's NSSDC Master Catalog

Two Line Element Set (TLE):
1 39204U 13035C   18198.92926574 +.00000371 +00000-0 +87862-4 0  9997
2 39204 098.4460 022.3096 0091461 000.1417 359.9791 14.57649853265724
Source of the keplerian elements: AFSPC